Location: Kouchibouguac National Park
(46.8081°N, 64.9088°W)
Time: 00:46:56
(UTC-03:00)

Amateur Radio Satellites - All Passes

Search period start: 02 July 2016 00:16
Search period end: 03 July 2016 00:16
Location: Kouchibouguac National Park, 46.8081°N, 64.9088°W

Satellite Date Start Highest point End Downlink Frequencies (MHz)
Time Altitude Azimuth
NANOSAT C BR1 02 Jul 00:22:10 00:25:57 30° 96° (E) 00:29:44 145.865
AISAT 02 Jul 00:23:12 00:27:34 64° 258° (WSW) 00:31:57 437.250
QB50P1 02 Jul 00:27:12 00:31:09 36° 97° (E) 00:35:05 145.935-145.965
DX 1 02 Jul 00:30:15 00:34:35 71° 257° (WSW) 00:38:56 434.975-435.025
POPSAT HIP 1 02 Jul 00:30:44 00:34:45 38° 98° (E) 00:38:45 437.405
Cosmos 2504 02 Jul 00:34:17 00:42:36 41° 69° (ENE) 00:50:33 435.465 / 435.565
ESTCUBE 1 02 Jul 00:34:29 00:38:38 35° 263° (W) 00:42:49 437.505/2401.250
DUCHIFAT 1 02 Jul 00:40:45 00:44:50 44° 99° (E) 00:48:54 145.980
QB50P2 02 Jul 00:43:54 00:48:07 57° 101° (E) 00:52:19 145.880/145.840
POLYITAN 1 02 Jul 00:46:31 00:50:45 58° 100° (E) 00:55:00 437.675
TIGRISAT 02 Jul 00:50:15 00:54:17 30° 294° (WNW) 00:58:21 435.000
UNISAT 6 02 Jul 00:56:50 01:00:38 25° 295° (WNW) 01:04:27 437.425
50 SAT 02 Jul 00:58:21 01:01:19 22° 266° (W) 01:04:19 437.505
PCSat 02 Jul 01:01:04 01:04:28 17° 105° (ESE) 01:07:53 145.827
CUBEBUG 1 02 Jul 01:01:20 01:05:00 26° 265° (W) 01:08:39 437.445
Cosmos 2491 02 Jul 01:01:51 01:10:32 72° 94° (E) 01:19:13 435.465 / 435.565
SO-50 02 Jul 01:03:42 01:07:53 33° 244° (WSW) 01:11:57 436.795
TISAT 1 02 Jul 01:05:08 01:09:03 41° 70° (ENE) 01:12:59 437.305
VELOX 1 02 Jul 01:19:46 01:22:57 19° 268° (W) 01:26:10 145.980
BUGSAT 1 02 Jul 01:21:21 01:25:25 56° 101° (E) 01:29:29 437.445
SPROUT 02 Jul 01:34:36 01:38:14 27° 265° (W) 01:41:55 437.525
ANTELSAT 02 Jul 01:38:06 01:39:54 12° 303° (WNW) 01:41:41 437.575/2403.000
BEESAT 2 02 Jul 01:40:57 01:41:13 10° 108° (ESE) 01:41:29 435.950
SWISSCUBE 02 Jul 01:41:06 01:45:04 26° 63° (ENE) 01:49:02 437.505
UKube-1 02 Jul 01:41:10 01:44:05 18° 268° (W) 01:47:01 .
YUBILEINY 02 Jul 01:44:58 01:52:40 35° 277° (W) 02:00:22 435.215
JAS-2 02 Jul 01:56:05 02:01:38 61° 101° (E) 02:06:47 435.910
Gurwin Techsat 1B 02 Jul 01:57:51 01:59:11 11° 85° (E) 02:00:30 435.225
NANOSAT C BR1 02 Jul 01:57:58 02:01:37 28° 293° (WNW) 02:05:16 145.865
QB50P1 02 Jul 02:03:18 02:06:46 25° 295° (WNW) 02:10:14 145.935-145.965
BEESAT 02 Jul 02:05:22 02:09:47 39° 68° (ENE) 02:14:14 436.000
POPSAT HIP 1 02 Jul 02:06:57 02:10:20 23° 295° (WNW) 02:13:43 437.405
ITUPSAT 1 02 Jul 02:08:50 02:13:19 41° 68° (ENE) 02:17:51 437.325
DUCHIFAT 1 02 Jul 02:17:06 02:20:15 20° 296° (WNW) 02:23:23 145.980
QB50P2 02 Jul 02:20:46 02:23:31 17° 298° (WNW) 02:26:16 145.880/145.840
POLYITAN 1 02 Jul 02:23:25 02:26:08 17° 299° (WNW) 02:28:52 437.675
Cosmos 2504 02 Jul 02:27:44 02:36:15 53° 271° (W) 02:44:23 435.465 / 435.565
BEESAT 3 02 Jul 02:29:09 02:32:59 56° 122° (ESE) 02:36:52 437.485
PCSat 02 Jul 02:41:45 02:47:11 81° 302° (WNW) 02:52:40 145.827
TISAT 1 02 Jul 02:41:49 02:44:53 20° 267° (W) 02:47:59 437.305
Oscar 19 02 Jul 02:47:39 02:52:46 66° 102° (ESE) 02:57:52 437.125/150
O/OREOS (USA 219) 02 Jul 02:55:32 03:00:00 75° 112° (ESE) 03:04:29 437.305
BUGSAT 1 02 Jul 02:57:51 03:00:24 16° 298° (WNW) 03:02:57 437.445
Cosmos 2491 02 Jul 03:00:47 03:08:11 30° 297° (WNW) 03:15:38 435.465 / 435.565
BEESAT 2 02 Jul 03:14:24 03:18:23 90° 28° (NNE) 03:22:23 435.950
AO-85 02 Jul 03:15:15 03:17:00 12° 17° (NNE) 03:18:43 145.980
SWISSCUBE 02 Jul 03:18:07 03:22:40 42° 262° (W) 03:27:15 437.505
ITAMSAT 1 02 Jul 03:19:06 03:23:07 22° 92° (E) 03:27:06 435.822/435.867
KKS-1 02 Jul 03:30:53 03:34:52 34° 67° (ENE) 03:38:52 437.445
Gurwin Techsat 1B 02 Jul 03:34:39 03:40:01 77° 104° (ESE) 03:45:20 435.225
JAS-2 02 Jul 03:42:03 03:46:14 22° 302° (WNW) 03:50:11 435.910
BEESAT 02 Jul 03:43:35 03:47:39 27° 265° (W) 03:51:46 436.000
AIST 1 02 Jul 03:44:17 03:48:09 32° 73° (ENE) 03:51:59
ITUPSAT 1 02 Jul 03:47:16 03:51:18 26° 266° (W) 03:55:20 437.325
MOZHAYETS 4 02 Jul 03:48:12 03:52:37 45° 70° (ENE) 03:57:04
GONETS M04 02 Jul 03:50:29 03:56:11 18° 55° (NE) 04:01:52
STARS 02 Jul 03:52:50 03:56:38 30° 66° (ENE) 04:00:26 437.465
BEESAT 3 02 Jul 04:07:54 04:10:59 21° 322° (NW) 04:14:05 437.485
Cosmos 2504 02 Jul 04:25:57 04:27:24 10° 293° (WNW) 04:28:50 435.465 / 435.565
PCSat 02 Jul 04:27:31 04:31:27 20° 325° (NW) 04:35:25 145.827
Oscar 19 02 Jul 04:27:59 04:31:37 20° 301° (WNW) 04:35:15 437.125/150
AIST 2 02 Jul 04:28:39 04:32:20 32° 117° (ESE) 04:36:03 435.215
AO-7 02 Jul 04:28:56 04:36:43 40° 98° (E) 04:44:24 29.400- 29.500
O/OREOS (USA 219) 02 Jul 04:37:04 04:39:57 17° 313° (NW) 04:42:50 437.305
BEESAT 2 02 Jul 04:54:13 04:56:47 16° 326° (NNW) 04:59:23 435.950
AO-85 02 Jul 04:54:41 04:58:59 34° 41° (NE) 05:02:55 145.980
ITAMSAT 1 02 Jul 04:57:48 05:02:55 56° 291° (WNW) 05:08:01 435.822/435.867
Cosmos 2499 02 Jul 04:59:31 05:07:07 31° 63° (ENE) 05:14:18 435.465 / 435.565
KKS-1 02 Jul 05:07:43 05:11:29 27° 265° (W) 05:15:16 437.445
Gurwin Techsat 1B 02 Jul 05:15:50 05:19:21 18° 302° (WNW) 05:22:53 435.225
AIST 1 02 Jul 05:22:10 05:25:36 24° 272° (W) 05:29:01
CUBESAT XI-V 02 Jul 05:26:03 05:30:39 56° 72° (ENE) 05:35:14 437.345
MOZHAYETS 4 02 Jul 05:26:24 05:29:59 22° 268° (W) 05:33:37
STARS 02 Jul 05:29:06 05:32:57 30° 264° (W) 05:36:50 437.465
GONETS M04 02 Jul 05:46:00 05:54:47 74° 79° (E) 06:03:32
PHONESAT 2.4 02 Jul 06:04:09 06:05:39 13° 159° (SSE) 06:07:09 2401.200-2431.200
AIST 2 02 Jul 06:07:02 06:10:48 33° 316° (NW) 06:14:36 435.215
HORYU 2 02 Jul 06:20:05 06:24:36 74° 104° (ESE) 06:29:06 437.375
NOAA 18 02 Jul 06:21:05 06:24:12 15° 88° (E) 06:27:17 137.9125
AO-7 02 Jul 06:21:38 06:29:44 55° 298° (WNW) 06:37:48 29.400- 29.500
CUTE-I 02 Jul 06:27:53 06:31:08 16° 89° (E) 06:34:22 437.470
AO-85 02 Jul 06:35:18 06:39:28 36° 243° (WSW) 06:43:18 145.980
BRITE-PL 02 Jul 06:37:39 06:40:54 22° 93° (E) 06:44:12 437.365/2234.400
NOAA 15 02 Jul 06:42:21 06:46:51 28° 95° (E) 06:51:18 137.62
STRAND 1 02 Jul 06:43:45 06:48:13 31° 64° (ENE) 06:52:43 437.568
DANDE 02 Jul 06:44:51 06:49:51 18° 82° (E) 06:54:28 436.750
GOMX 1 02 Jul 06:51:41 06:54:07 15° 90° (E) 06:56:37 467.674
Cosmos 2499 02 Jul 06:52:19 07:01:03 69° 266° (W) 07:09:11 435.465 / 435.565
LilacSat-2 02 Jul 07:04:40 07:08:05 28° 96° (E) 07:11:27 437.200
CUBESAT XI-V 02 Jul 07:05:09 07:08:23 18° 270° (W) 07:11:37 437.345
CUSAT 1 02 Jul 07:25:24 07:32:36 56° 96° (E) 07:38:26 437.405
DOVE 4 02 Jul 07:31:27 07:34:35 19° 92° (E) 07:37:49 437.250
Cubesat XI-IV 02 Jul 07:33:20 07:38:39 57° 101° (E) 07:43:56 437.490
PHONESAT 2.4 02 Jul 07:39:06 07:41:39 24° 175° (S) 07:44:12 2401.200-2431.200
ISS 02 Jul 07:43:37 07:46:05 20° 138° (SE) 07:48:35 145.825
GONETS M04 02 Jul 07:43:53 07:50:45 27° 280° (W) 07:57:39
HORYU 2 02 Jul 07:58:03 08:00:36 15° 301° (WNW) 08:03:08 437.375
CINEMA 3 02 Jul 07:59:16 08:01:02 12° 88° (E) 08:02:49 145.822/145.860
NOAA 18 02 Jul 07:59:58 08:05:34 86° 286° (WNW) 08:11:08 137.9125
PCSat 02 Jul 08:01:58 08:03:24 11° 19° (NNE) 08:04:49 145.827
CUTE 1.7 + AOD 2 02 Jul 08:06:24 08:06:48 10° 86° (E) 08:07:13 437.475
CUTE-I 02 Jul 08:06:24 08:11:49 78° 287° (WNW) 08:17:10 437.470
BRITE-PL 02 Jul 08:15:45 08:19:34 35° 291° (WNW) 08:23:24 437.365/2234.400
AO-7 02 Jul 08:16:02 08:20:45 17° 321° (NW) 08:25:27 29.400- 29.500
PRISM 02 Jul 08:19:20 08:23:07 35° 68° (ENE) 08:26:54 437.425
NOAA 15 02 Jul 08:21:49 08:26:47 44° 293° (WNW) 08:31:43 137.62
STRAND 1 02 Jul 08:22:27 08:27:16 40° 262° (W) 08:32:08 437.568
DANDE 02 Jul 08:23:31 08:31:51 77° 98° (E) 08:39:05 436.750
GOMX 1 02 Jul 08:28:26 08:32:35 58° 287° (WNW) 08:36:56 467.674
LilacSat-2 02 Jul 08:39:03 08:42:17 25° 293° (WNW) 08:45:32 437.200
Cosmos 2499 02 Jul 08:47:59 08:52:23 15° 289° (WNW) 08:56:40 435.465 / 435.565
CUBEBUG 2 02 Jul 09:05:00 09:08:11 18° 91° (E) 09:11:25 437.445
COMPASS 1 02 Jul 09:06:14 09:09:36 23° 93° (E) 09:12:54 437.405
BEESAT 3 02 Jul 09:06:57 09:09:26 16° 33° (NNE) 09:11:54 437.485
DOVE 4 02 Jul 09:08:19 09:12:32 49° 288° (WNW) 09:16:58 437.250
CUSAT 1 02 Jul 09:08:39 09:14:50 30° 290° (WNW) 09:19:59 437.405
Cubesat XI-IV 02 Jul 09:14:06 09:18:21 24° 300° (WNW) 09:22:35 437.490
PHONESAT 2.4 02 Jul 09:15:24 09:17:46 20° 192° (SSW) 09:20:07 2401.200-2431.200
HO-68 02 Jul 09:15:34 09:22:39 56° 101° (ESE) 09:29:41 435.675
ZACube-1 02 Jul 09:15:49 09:16:22 10° 86° (E) 09:16:54 437.345
Oscar 11 02 Jul 09:17:41 09:18:20 10° 87° (E) 09:18:58 145.826/435.025
ISS 02 Jul 09:18:59 09:22:15 76° 336° (NNW) 09:25:31 145.825
CANX-2 02 Jul 09:19:44 09:24:02 69° 101° (ESE) 09:28:17 2200.000
ANTELSAT 02 Jul 09:26:18 09:28:55 16° 60° (ENE) 09:31:35 437.575/2403.000
FUNcube-1 02 Jul 09:29:29 09:31:51 14° 88° (E) 09:34:12 145.935
CINEMA 3 02 Jul 09:34:06 09:38:43 85° 286° (WNW) 09:43:31 145.822/145.860
SEEDS 02 Jul 09:35:27 09:39:41 65° 101° (E) 09:43:52 437.485
CUTE 1.7 + AOD 2 02 Jul 09:38:57 09:43:16 85° 284° (WNW) 09:47:31 437.475
NOAA 18 02 Jul 09:42:10 09:45:26 16° 306° (NW) 09:48:43 137.9125
UWE-3 02 Jul 09:43:11 09:47:14 29° 95° (E) 09:51:18 435.000/436.395/437.385
PCSat 02 Jul 09:43:48 09:48:38 31° 43° (NE) 09:53:25 145.827
CUTE-I 02 Jul 09:48:20 09:50:59 14° 306° (NW) 09:53:39 437.470
BEESAT 2 02 Jul 09:52:36 09:55:43 21° 38° (NE) 09:58:51 435.950
PRISM 02 Jul 09:55:12 09:58:31 23° 266° (W) 10:01:51 437.425
M-CUBED/EXP-1 PRIME 02 Jul 09:58:49 10:02:06 24° 101° (E) 10:05:33 437.505
AAUSAT CUBESAT 2 02 Jul 10:02:53 10:07:04 73° 102° (ESE) 10:11:12 437.432
DANDE 02 Jul 10:08:28 10:15:13 28° 295° (WNW) 10:21:12 436.750
TIGRISAT 02 Jul 10:14:51 10:18:55 41° 69° (ENE) 10:23:07 435.000
UNISAT 6 02 Jul 10:21:14 10:25:27 50° 71° (ENE) 10:29:47 437.425
RS-15 02 Jul 10:26:35 10:35:13 26° 100° (E) 10:44:09 29.354- 29.394
CUBEBUG 2 02 Jul 10:40:35 10:45:08 57° 288° (WNW) 10:49:46 437.445
COMPASS 1 02 Jul 10:41:24 10:45:16 36° 291° (WNW) 10:49:04 437.405
BEESAT 3 02 Jul 10:43:44 10:47:43 86° 53° (NE) 10:51:40 437.485
ZACube-1 02 Jul 10:48:42 10:53:19 86° 101° (ESE) 10:57:55 437.345
AUBIESAT-1 02 Jul 10:49:45 10:53:45 67° 108° (ESE) 10:58:01 437.475
Oscar 11 02 Jul 10:50:42 10:55:05 86° 284° (WNW) 10:59:26 145.826/435.025
ISS 02 Jul 10:55:59 10:59:01 34° 356° (N) 11:02:03 145.825
CANX-2 02 Jul 10:57:03 10:59:22 14° 300° (WNW) 11:01:40 2200.000
ANTELSAT 02 Jul 11:00:47 11:05:06 66° 258° (WSW) 11:09:34 437.575/2403.000
YUBILEINY 02 Jul 11:02:30 11:05:30 12° 69° (ENE) 11:08:30 435.215
HO-68 02 Jul 11:03:44 11:10:05 35° 301° (WNW) 11:16:27 435.675
FUNcube-1 02 Jul 11:04:01 11:08:34 72° 285° (WNW) 11:13:08 145.935
Cosmos 2491 02 Jul 11:08:41 11:16:51 42° 69° (ENE) 11:24:57 435.465 / 435.565
AIST 2 02 Jul 11:09:37 11:11:36 13° 28° (NNE) 11:13:34 435.215
SEEDS 02 Jul 11:12:30 11:14:54 15° 299° (WNW) 11:17:17 437.485
CINEMA 3 02 Jul 11:13:22 11:15:12 12° 302° (WNW) 11:17:03 145.822/145.860
DELFI C3 02 Jul 11:15:15 11:19:17 84° 106° (ESE) 11:23:14 145.870
NANOSAT C BR1 02 Jul 11:17:01 11:20:45 32° 68° (ENE) 11:24:32 145.865
CUTE 1.7 + AOD 2 02 Jul 11:17:21 11:18:23 11° 302° (WNW) 11:19:24 437.475
UWE-3 02 Jul 11:19:31 11:23:42 35° 292° (WNW) 11:27:55 435.000/436.395/437.385
QB50P1 02 Jul 11:22:17 11:26:11 38° 69° (ENE) 11:30:06 145.935-145.965
O/OREOS (USA 219) 02 Jul 11:23:39 11:27:37 30° 55° (NE) 11:31:35 437.305
HUMSAT D 02 Jul 11:25:48 11:30:02 52° 100° (E) 11:34:13 437.325/437.525
POPSAT HIP 1 02 Jul 11:25:51 11:29:47 41° 70° (ENE) 11:33:46 437.405
PCSat 02 Jul 11:27:01 11:32:19 54° 243° (WSW) 11:37:34 145.827
BEESAT 2 02 Jul 11:29:57 11:33:54 58° 237° (WSW) 11:37:49 435.950
M-CUBED/EXP-1 PRIME 02 Jul 11:33:04 11:36:42 36° 296° (WNW) 11:40:35 437.505
DUCHIFAT 1 02 Jul 11:35:13 11:39:12 47° 71° (ENE) 11:43:15 145.980
QB50P2 02 Jul 11:39:03 11:43:11 61° 73° (ENE) 11:47:22 145.880/145.840
AAUSAT CUBESAT 2 02 Jul 11:40:02 11:41:59 13° 300° (WNW) 11:43:56 437.432
POLYITAN 1 02 Jul 11:41:40 11:45:49 62° 73° (ENE) 11:50:01 437.675
TIGRISAT 02 Jul 11:52:24 11:55:48 22° 268° (W) 11:59:16 435.000
UNISAT 6 02 Jul 11:59:28 12:02:29 18° 269° (W) 12:05:34 437.425
JAS-2 02 Jul 12:09:39 12:16:29 43° 66° (ENE) 12:22:40 435.910
AISAT 02 Jul 12:11:08 12:14:19 19° 92° (E) 12:17:29 437.250
BUGSAT 1 02 Jul 12:13:43 12:17:39 55° 72° (ENE) 12:21:35 437.445
DX 1 02 Jul 12:16:36 12:19:18 16° 91° (E) 12:21:58 434.975-435.025
ESTCUBE 1 02 Jul 12:23:39 12:27:53 39° 98° (E) 12:32:04 437.505/2401.250
BEESAT 3 02 Jul 12:23:55 12:24:45 11° 251° (WSW) 12:25:35 437.485
50 SAT 02 Jul 12:24:00 12:27:03 24° 95° (E) 12:30:04 437.505
AUBIESAT-1 02 Jul 12:25:32 12:27:51 15° 303° (WNW) 12:30:15 437.475
ZACube-1 02 Jul 12:26:47 12:28:57 13° 301° (WNW) 12:31:07 437.345
Oscar 11 02 Jul 12:29:09 12:30:30 11° 303° (WNW) 12:31:51 145.826/435.025
Oscar 19 02 Jul 12:30:05 12:33:44 20° 59° (ENE) 12:37:22 437.125/150
ISS 02 Jul 12:32:43 12:35:54 46° 16° (NNE) 12:39:04 145.825
RS-15 02 Jul 12:34:23 12:45:53 86° 124° (SE) 12:58:05 29.354- 29.394
FUNcube-1 02 Jul 12:43:23 12:43:59 10° 304° (NW) 12:44:35 145.935
CUBEBUG 1 02 Jul 12:46:04 12:50:14 44° 99° (E) 12:54:22 437.445
AIST 2 02 Jul 12:46:53 12:50:59 55° 49° (NE) 12:55:04 435.215
YUBILEINY 02 Jul 12:51:48 13:00:18 61° 91° (E) 13:08:53 435.215
DELFI C3 02 Jul 12:52:29 12:53:30 11° 301° (WNW) 12:54:30 145.870
NANOSAT C BR1 02 Jul 12:53:03 12:56:32 25° 266° (W) 13:00:03 145.865
QB50P1 02 Jul 12:58:52 13:02:06 21° 267° (W) 13:05:22 145.935-145.965
HUMSAT D 02 Jul 13:02:18 13:05:18 19° 297° (WNW) 13:08:16 437.325/437.525
POPSAT HIP 1 02 Jul 13:02:39 13:05:46 20° 267° (W) 13:08:55 437.405
O/OREOS (USA 219) 02 Jul 13:03:00 13:07:03 34° 254° (WSW) 13:11:06 437.305
VELOX 1 02 Jul 13:05:16 13:09:39 63° 102° (ESE) 13:14:01 145.980
Cosmos 2491 02 Jul 13:05:36 13:13:53 51° 271° (W) 13:22:08 435.465 / 435.565
DUCHIFAT 1 02 Jul 13:12:20 13:15:10 18° 268° (W) 13:18:02 145.980
Cosmos 2504 02 Jul 13:16:37 13:23:32 30° 81° (E) 13:30:45 435.465 / 435.565
SPROUT 02 Jul 13:16:52 13:20:55 39° 98° (E) 13:24:56 437.525
QB50P2 02 Jul 13:17:11 13:19:25 14° 271° (W) 13:21:38 145.880/145.840
POLYITAN 1 02 Jul 13:19:54 13:22:03 14° 271° (W) 13:24:12 437.675
Gurwin Techsat 1B 02 Jul 13:20:12 13:24:28 25° 62° (ENE) 13:28:46 435.225
UKube-1 02 Jul 13:23:30 13:27:47 61° 101° (ESE) 13:32:02 .
AO-7 02 Jul 13:42:07 13:47:39 20° 43° (NE) 13:53:11 29.400- 29.500
AISAT 02 Jul 13:46:49 13:51:03 47° 290° (WNW) 13:55:16 437.250
BUGSAT 1 02 Jul 13:51:16 13:53:24 14° 270° (W) 13:55:31 437.445
DX 1 02 Jul 13:51:35 13:55:51 56° 288° (WNW) 14:00:05 434.975-435.025
JAS-2 02 Jul 13:54:29 14:01:30 43° 262° (W) 14:07:53 435.910
50 SAT 02 Jul 13:57:34 14:00:43 27° 292° (WNW) 14:03:49 437.505
ESTCUBE 1 02 Jul 14:00:50 14:04:31 25° 296° (WNW) 14:08:10 437.505/2401.250
Oscar 19 02 Jul 14:07:28 14:12:35 66° 259° (WSW) 14:17:42 437.125/150
ISS 02 Jul 14:09:14 14:12:21 43° 215° (SW) 14:15:28 145.825
TISAT 1 02 Jul 14:21:21 14:25:27 49° 100° (E) 14:29:33 437.305
CUBEBUG 1 02 Jul 14:23:01 14:26:15 21° 297° (WNW) 14:29:29 437.445
AIST 2 02 Jul 14:26:12 14:29:06 19° 247° (WSW) 14:32:00 435.215
ITAMSAT 1 02 Jul 14:39:31 14:44:27 44° 68° (ENE) 14:49:26 435.822/435.867
VELOX 1 02 Jul 14:42:57 14:45:39 16° 300° (WNW) 14:48:22 145.980
RS-15 02 Jul 14:48:53 14:59:52 43° 333° (NNW) 15:11:24 29.354- 29.394
YUBILEINY 02 Jul 14:49:50 14:57:36 35° 294° (WNW) 15:05:31 435.215
SPROUT 02 Jul 14:53:17 14:56:40 23° 295° (WNW) 15:00:03 437.525
Gurwin Techsat 1B 02 Jul 14:58:57 15:04:07 52° 260° (W) 15:09:20 435.225
UKube-1 02 Jul 15:00:42 15:03:24 16° 300° (WNW) 15:06:03 .
Cosmos 2504 02 Jul 15:07:54 15:16:11 69° 282° (WNW) 15:25:01 435.465 / 435.565
SWISSCUBE 02 Jul 15:15:06 15:19:38 39° 98° (E) 15:24:05 437.505
SO-50 02 Jul 15:19:43 15:24:17 40° 118° (ESE) 15:28:49 436.795
AO-7 02 Jul 15:30:45 15:38:59 68° 65° (ENE) 15:47:17 29.400- 29.500
BEESAT 02 Jul 15:39:44 15:44:30 61° 102° (ESE) 15:49:14 436.000
ITUPSAT 1 02 Jul 15:43:42 15:48:31 65° 102° (ESE) 15:53:16 437.325
HORYU 2 02 Jul 15:47:08 15:49:11 13° 57° (ENE) 15:51:14 437.375
TISAT 1 02 Jul 15:57:50 16:00:46 19° 297° (WNW) 16:03:43 437.305
AIST 1 02 Jul 16:17:45 16:20:31 17° 85° (E) 16:23:17
ITAMSAT 1 02 Jul 16:19:41 16:24:06 27° 266° (W) 16:28:33 435.822/435.867
NOAA 15 02 Jul 16:30:29 16:31:28 10° 51° (NE) 16:32:28 137.62
SWISSCUBE 02 Jul 16:53:12 16:57:16 28° 296° (WNW) 17:01:18 437.505
KKS-1 02 Jul 16:54:49 16:59:06 45° 99° (E) 17:03:22 437.445
GONETS M04 02 Jul 16:58:38 17:03:34 17° 73° (ENE) 17:08:29
SO-50 02 Jul 17:00:18 17:04:49 37° 317° (NW) 17:09:20 436.795
RS-15 02 Jul 17:05:51 17:16:29 34° 7° (N) 17:27:21 29.354- 29.394
Cosmos 2504 02 Jul 17:06:13 17:11:33 18° 307° (NW) 17:17:03 435.465 / 435.565
STARS 02 Jul 17:14:55 17:19:03 37° 98° (E) 17:23:09 437.465
MOZHAYETS 4 02 Jul 17:17:02 17:21:43 73° 103° (ESE) 17:26:19
BEESAT 02 Jul 17:18:28 17:21:51 19° 300° (WNW) 17:25:13 436.000
Cubesat XI-IV 02 Jul 17:20:17 17:24:08 20° 58° (ENE) 17:27:58 437.490
HORYU 2 02 Jul 17:20:38 17:25:05 85° 259° (WSW) 17:29:35 437.375
CUBESAT XI-V 02 Jul 17:22:07 17:23:25 11° 86° (E) 17:24:43 437.345
ITUPSAT 1 02 Jul 17:22:36 17:25:51 18° 301° (WNW) 17:29:07 437.325
AO-7 02 Jul 17:25:11 17:32:20 31° 265° (W) 17:39:35 29.400- 29.500
Cosmos 2499 02 Jul 17:40:59 17:47:03 22° 76° (ENE) 17:53:15 435.465 / 435.565
NOAA 18 02 Jul 17:49:27 17:54:27 38° 65° (ENE) 17:59:30 137.9125
LilacSat-2 02 Jul 17:49:46 17:52:44 22° 66° (ENE) 17:55:44 437.200
BRITE-PL 02 Jul 17:50:51 17:55:17 39° 70° (ENE) 17:59:27 437.365/2234.400
CUTE-I 02 Jul 17:51:56 17:56:45 35° 65° (ENE) 18:01:36 437.470
AIST 1 02 Jul 17:53:34 17:57:44 48° 283° (WNW) 18:01:54
CUSAT 1 02 Jul 17:59:12 18:02:11 25° 68° (ENE) 18:04:41 437.405
GOMX 1 02 Jul 18:02:36 18:06:02 23° 66° (ENE) 18:09:22 467.674
HO-68 02 Jul 18:04:14 18:07:36 14° 44° (NE) 18:10:59 435.675
NOAA 15 02 Jul 18:05:00 18:10:12 59° 70° (ENE) 18:15:24 137.62
KKS-1 02 Jul 18:31:59 18:35:24 22° 297° (WNW) 18:38:50 437.445
DOVE 4 02 Jul 18:40:08 18:43:32 24° 66° (ENE) 18:46:54 437.250
SO-50 02 Jul 18:44:36 18:46:42 13° 340° (NNW) 18:48:46 436.795
GONETS M04 02 Jul 18:50:11 18:58:50 77° 95° (E) 19:07:31
STARS 02 Jul 18:51:37 18:55:15 25° 295° (WNW) 18:58:51 437.465
MOZHAYETS 4 02 Jul 18:55:34 18:58:19 16° 301° (WNW) 19:01:02
CUBESAT XI-V 02 Jul 18:56:49 19:01:28 87° 284° (WNW) 19:06:04 437.345
Cubesat XI-IV 02 Jul 18:58:20 19:03:40 70° 257° (WSW) 19:09:04 437.490
CUTE 1.7 + AOD 2 02 Jul 19:01:20 19:03:03 12° 59° (ENE) 19:04:46 437.475
DANDE 02 Jul 19:02:55 19:07:37 59° 74° (ENE) 19:11:06 436.750
CINEMA 3 02 Jul 19:04:10 19:06:21 14° 60° (ENE) 19:08:33 145.822/145.860
RS-15 02 Jul 19:20:21 19:32:24 56° 39° (NE) 19:44:28 29.354- 29.394
LilacSat-2 02 Jul 19:23:28 19:26:53 32° 264° (W) 19:30:21 437.200
BRITE-PL 02 Jul 19:29:53 19:33:52 25° 265° (W) 19:37:39 437.365/2234.400
NOAA 18 02 Jul 19:30:09 19:35:08 35° 263° (W) 19:40:11 137.9125
Cosmos 2499 02 Jul 19:30:23 19:38:55 90° 85° (E) 19:47:52 435.465 / 435.565
CUTE-I 02 Jul 19:31:51 19:36:46 37° 263° (W) 19:41:44 437.470
GOMX 1 02 Jul 19:39:49 19:43:59 38° 262° (W) 19:47:58 467.674
CUSAT 1 02 Jul 19:42:13 19:43:50 13° 276° (W) 19:45:20 437.405
NOAA 15 02 Jul 19:46:27 19:50:22 21° 268° (W) 19:54:18 137.62
HO-68 02 Jul 19:46:53 19:53:49 56° 65° (ENE) 20:00:48 435.675
COMPASS 1 02 Jul 19:59:46 20:03:08 23° 65° (ENE) 20:06:31 437.405
CUBEBUG 2 02 Jul 20:06:17 20:09:22 20° 63° (ENE) 20:12:30 437.445
AUBIESAT-1 02 Jul 20:07:05 20:08:32 12° 55° (NE) 20:10:02 437.475
ZACube-1 02 Jul 20:14:07 20:15:46 12° 58° (ENE) 20:17:27 437.345
Oscar 11 02 Jul 20:14:37 20:16:40 13° 59° (ENE) 20:18:42 145.826/435.025
CANX-2 02 Jul 20:14:52 20:19:09 70° 74° (ENE) 20:23:27 2200.000
DOVE 4 02 Jul 20:17:20 20:21:09 33° 263° (W) 20:24:56 437.250
FUNcube-1 02 Jul 20:28:05 20:30:37 15° 60° (ENE) 20:33:11 145.935
STRAND 1 02 Jul 20:29:31 20:34:37 56° 101° (E) 20:39:39 437.568
SEEDS 02 Jul 20:29:32 20:33:45 64° 73° (ENE) 20:37:59 437.485
CUTE 1.7 + AOD 2 02 Jul 20:33:57 20:38:14 85° 257° (WSW) 20:42:34 437.475
CUBESAT XI-V 02 Jul 20:36:15 20:38:08 12° 303° (WNW) 20:40:00 437.345
CINEMA 3 02 Jul 20:38:51 20:42:58 66° 259° (W) 20:47:11 145.822/145.860
UWE-3 02 Jul 20:43:05 20:46:50 31° 67° (ENE) 20:50:42 435.000/436.395/437.385
DANDE 02 Jul 20:48:15 20:49:19 11° 283° (WNW) 20:50:19 436.750
M-CUBED/EXP-1 PRIME 02 Jul 20:48:34 20:51:39 41° 65° (ENE) 20:54:51 437.505
GONETS M04 02 Jul 20:49:28 20:56:37 28° 298° (WNW) 21:03:48
AO-85 02 Jul 20:50:48 20:55:48 40° 118° (ESE) 21:00:40 145.980
AAUSAT CUBESAT 2 02 Jul 20:55:27 20:59:37 69° 74° (ENE) 21:03:49 437.432
Cosmos 2499 02 Jul 21:26:41 21:33:22 24° 301° (WNW) 21:40:17 435.465 / 435.565
PRISM 02 Jul 21:32:57 21:36:45 36° 98° (E) 21:40:31 437.425
RS-15 02 Jul 21:33:17 21:45:15 60° 245° (WSW) 21:57:07 29.354- 29.394
COMPASS 1 02 Jul 21:34:36 21:38:31 37° 263° (W) 21:42:28 437.405
HO-68 02 Jul 21:35:30 21:41:51 33° 265° (W) 21:48:14 435.675
AUBIESAT-1 02 Jul 21:39:24 21:42:38 53° 254° (WSW) 21:45:59 437.475
CUBEBUG 2 02 Jul 21:41:36 21:45:39 46° 261° (W) 21:49:52 437.445
ZACube-1 02 Jul 21:47:06 21:51:21 87° 251° (WSW) 21:55:46 437.345
Oscar 11 02 Jul 21:47:50 21:52:11 80° 256° (WSW) 21:56:35 145.826/435.025
CANX-2 02 Jul 21:53:33 21:55:29 13° 272° (W) 21:57:25 2200.000
FUNcube-1 02 Jul 22:02:07 22:06:20 65° 259° (W) 22:10:42 145.935
DELFI C3 02 Jul 22:03:29 22:07:30 71° 75° (ENE) 22:11:32 145.870
SEEDS 02 Jul 22:07:42 22:09:53 14° 271° (W) 22:12:04 437.485
SO-50 02 Jul 22:08:30 22:11:51 19° 30° (NNE) 22:15:08 436.795
STRAND 1 02 Jul 22:09:26 22:13:25 23° 299° (WNW) 22:17:23 437.568
HUMSAT D 02 Jul 22:19:32 22:23:37 51° 71° (ENE) 22:27:46 437.325/437.525
UWE-3 02 Jul 22:19:40 22:23:19 28° 266° (W) 22:27:04 435.000/436.395/437.385
M-CUBED/EXP-1 PRIME 02 Jul 22:25:00 22:26:31 13° 263° (W) 22:28:03 437.505
AO-85 02 Jul 22:31:15 22:36:21 41° 316° (NW) 22:41:12 145.980
VELOX 1 02 Jul 22:32:43 22:33:46 11° 56° (NE) 22:34:49 145.980
AAUSAT CUBESAT 2 02 Jul 22:33:49 22:35:35 12° 272° (W) 22:37:21 437.432
ANTELSAT 02 Jul 22:49:52 22:53:31 22° 92° (E) 22:57:12 437.575/2403.000
YUBILEINY 02 Jul 22:58:18 23:06:16 36° 66° (ENE) 23:14:11 435.215
50 SAT 02 Jul 23:05:00 23:07:38 19° 65° (ENE) 23:10:17 437.505
Cosmos 2504 02 Jul 23:05:28 23:10:08 15° 50° (NE) 23:14:43 435.465 / 435.565
PRISM 02 Jul 23:08:41 23:11:52 22° 296° (WNW) 23:15:02 437.425
AISAT 02 Jul 23:11:10 23:14:46 25° 65° (ENE) 23:18:22 437.250
DX 1 02 Jul 23:14:45 23:18:00 21° 63° (ENE) 23:21:17 434.975-435.025
ESTCUBE 1 02 Jul 23:25:39 23:30:02 51° 71° (ENE) 23:34:26 437.505/2401.250
TIGRISAT 02 Jul 23:39:23 23:44:02 62° 101° (E) 23:48:42 435.000
DELFI C3 02 Jul 23:41:36 23:42:50 11° 272° (W) 23:44:05 145.870
CUBEBUG 1 02 Jul 23:44:33 23:48:47 53° 71° (ENE) 23:53:00 437.445
UNISAT 6 02 Jul 23:46:08 23:50:50 76° 103° (ESE) 23:55:33 437.425
SO-50 02 Jul 23:48:23 23:53:07 79° 53° (NE) 23:57:40 436.795
RS-15 02 Jul 23:49:19 23:54:56 14° 268° (W) 00:00:32 29.354- 29.394
HUMSAT D 02 Jul 23:56:49 23:59:34 17° 270° (W) 00:02:20 437.325/437.525
VELOX 1 03 Jul 00:05:05 00:09:29 80° 74° (ENE) 00:13:54 145.980
